{"data":{"norad_id":41924,"epoch":"2026-09-19T20:24:34.497792Z","epoch_age_seconds":71643,"freshness":"FRESH","line1":"1 41924U 17003H   26262.85039928  .00000062  00000+0  15107-4 0  9998","line2":"2 41924  86.4010  17.1692 0002161  96.3269 263.8172 14.34217790508675","mean_motion":14.3421779,"eccentricity":0.0002161,"inclination_deg":86.401,"raan_deg":17.1692,"arg_perigee_deg":96.3269,"mean_anomaly_deg":263.8172,"bstar":1.5107e-5,"rev_number":50867,"period_min":100.40316122421,"perigee_km":776.12065205534,"apogee_km":779.21339055335,"semimajor_km":7155.8040213043,"source":"CELESTRAK","updated_at":"2026-09-20T09:00:36.321118Z"}}